| time (UTC) | temp C | wind direction | speed KPH | gust KPH | rain 1hr cm | rain 24hr cm | rain mn cm | humidity % | barometer mb |
| 20260509224621 | 7 | 216 | 0.0 | 0.0 | 0.00 | 0.10 | 0.00 | 94 | 1016.8 |
| 20260509223114 | 8 | 216 | 0.0 | 0.0 | 0.00 | 0.10 | 0.00 | 94 | 1016.9 |
| 20260509220149 | 8 | 216 | 0.0 | 0.0 | 0.00 | 0.10 | 0.00 | 94 | 1017.0 |
| 20260509214626 | 8 | 216 | 0.0 | 0.0 | 0.00 | 0.10 | 0.10 | 94 | 1016.9 |
| 20260509211623 | 8 | 216 | 0.0 | 0.0 | 0.00 | 0.10 | 0.10 | 94 | 1017.0 |
| 20260509210115 | 8 | 216 | 0.0 | 0.0 | 0.00 | 0.10 | 0.10 | 94 | 1016.9 |
| 20260509203116 | 9 | 216 | 0.0 | 0.0 | 0.00 | 0.10 | 0.10 | 94 | 1016.7 |
| 20260509200122 | 9 | 216 | 0.0 | 0.0 | 0.00 | 0.10 | 0.10 | 93 | 1016.8 |
| 20260509193124 | 9 | 216 | 0.0 | 0.0 | 0.00 | 0.10 | 0.10 | 93 | 1016.3 |
| 20260509191622 | 10 | 216 | 0.0 | 0.0 | 0.00 | 0.10 | 0.10 | 92 | 1016.3 |
| 20260509190120 | 10 | 216 | 0.0 | 0.0 | 0.00 | 0.10 | 0.10 | 92 | 1016.2 |
| 20260509184617 | 10 | 216 | 0.0 | 0.0 | 0.00 | 0.10 | 0.10 | 91 | 1016.2 |
| 20260509181620 | 11 | 216 | 0.0 | 0.0 | 0.00 | 0.10 | 0.10 | 91 | 1016.0 |
| 20260509174627 | 12 | 216 | 0.0 | 1.6 | 0.00 | 0.10 | 0.10 | 91 | 1016.1 |
| 20260509171621 | 12 | 216 | 0.0 | 1.6 | 0.00 | 0.10 | 0.10 | 89 | 1016.0 |
| 20260509164616 | 13 | 215 | 0.0 | 4.8 | 0.00 | 0.10 | 0.10 | 90 | 1016.0 |
| 20260509161623 | 13 | 215 | 0.0 | 3.2 | 0.00 | 0.10 | 0.10 | 89 | 1016.1 |
| 20260509154625 | 13 | 184 | 1.6 | 6.4 | 0.00 | 0.10 | 0.10 | 90 | 1016.2 |
| 20260509151621 | 13 | 232 | 0.0 | 6.4 | 0.05 | 0.10 | 0.10 | 88 | 1016.4 |
| 20260509144620 | 13 | 272 | 0.0 | 4.8 | 0.10 | 0.10 | 0.10 | 89 | 1016.4 |
| 20260509141619 | 15 | 240 | 0.0 | 6.4 | 0.05 | 0.05 | 0.05 | 82 | 1016.4 |
| 20260509134621 | 16 | 268 | 4.8 | 8.0 | 0.00 | 0.00 | 0.00 | 65 | 1016.2 |
| 20260509133118 | 17 | 224 | 4.8 | 9.7 | 0.00 | 0.00 | 0.00 | 63 | 1016.1 |
| 20260509130121 | 18 | 245 | 4.8 | 14.5 | 0.00 | 0.00 | 0.00 | 62 | 1016.1 |
| 20260509123122 | 18 | 314 | 1.6 | 14.5 | 0.00 | 0.00 | 0.00 | 64 | 1016.2 |
| 20260509121634 | 17 | 263 | 3.2 | 16.1 | 0.00 | 0.00 | 0.00 | 61 | 1016.2 |
| 20260509114621 | 17 | 227 | 6.4 | 14.5 | 0.00 | 0.00 | 0.00 | 62 | 1016.4 |
| 20260509111625 | 17 | 203 | 4.8 | 16.1 | 0.00 | 0.00 | 0.00 | 64 | 1016.7 |
| 20260509104624 | 16 | 275 | 1.6 | 16.1 | 0.00 | 0.00 | 0.00 | 65 | 1016.9 |
| 20260509103125 | 16 | 269 | 4.8 | 16.1 | 0.00 | 0.00 | 0.00 | 64 | 1017.1 |
| 20260509101622 | 16 | 248 | 6.4 | 14.5 | 0.00 | 0.00 | 0.00 | 63 | 1017.2 |
| 20260509100119 | 16 | 236 | 4.8 | 14.5 | 0.00 | 0.00 | 0.00 | 66 | 1017.1 |
| 20260509093123 | 16 | 269 | 0.0 | 8.0 | 0.00 | 0.00 | 0.00 | 66 | 1017.3 |
| 20260509091614 | 16 | 238 | 6.4 | 14.5 | 0.00 | 0.00 | 0.00 | 59 | 1017.4 |
| 20260509084621 | 15 | 288 | 0.0 | 0.0 | 0.00 | 0.00 | 0.00 | 72 | 1017.6 |
| 20260509083119 | 14 | 327 | 0.0 | 0.0 | 0.00 | 0.00 | 0.00 | 75 | 1017.7 |
| 20260509080123 | 13 | 329 | 0.0 | 0.0 | 0.00 | 0.00 | 0.00 | 76 | 1017.6 |
| 20260509074620 | 12 | 316 | 0.0 | 0.0 | 0.00 | 0.00 | 0.00 | 80 | 1017.7 |
| 20260509071623 | 11 | 309 | 0.0 | 0.0 | 0.00 | 0.00 | 0.00 | 85 | 1017.7 |
| 20260509064623 | 10 | 300 | 0.0 | 0.0 | 0.00 | 0.00 | 0.00 | 95 | 1017.7 |
| 20260509061625 | 8 | 234 | 0.0 | 0.0 | 0.00 | 0.00 | 0.00 | 96 | 1017.8 |
| 20260509060119 | 8 | 234 | 0.0 | 0.0 | 0.00 | 0.00 | 0.00 | 96 | 1017.6 |
| 20260509053119 | 6 | 234 | 0.0 | 0.0 | 0.00 | 0.00 | 0.00 | 96 | 1017.6 |
| 20260509050122 | 4 | 234 | 0.0 | 0.0 | 0.00 | 0.00 | 0.00 | 96 | 1017.6 |
| 20260509043118 | 3 | 234 | 0.0 | 0.0 | 0.00 | 0.00 | 0.00 | 95 | 1017.3 |
| 20260509041614 | 3 | 234 | 0.0 | 0.0 | 0.00 | 0.00 | 0.00 | 95 | 1017.3 |
| 20260509034621 | 3 | 234 | 0.0 | 0.0 | 0.00 | 0.00 | 0.00 | 95 | 1017.2 |
| 20260509031621 | 3 | 234 | 0.0 | 0.0 | 0.00 | 0.00 | 0.00 | 95 | 1017.2 |
| 20260509024616 | 4 | 234 | 0.0 | 0.0 | 0.00 | 0.00 | 0.00 | 95 | 1017.2 |
| 20260509023114 | 4 | 234 | 0.0 | 0.0 | 0.00 | 0.00 | 0.00 | 95 | 1017.2 |
| 20260509020116 | 5 | 234 | 0.0 | 0.0 | 0.00 | 0.00 | 0.00 | 95 | 1017.2 |
| 20260509013122 | 5 | 234 | 0.0 | 0.0 | 0.00 | 0.00 | 0.00 | 95 | 1017.1 |
| 20260509010124 | 5 | 234 | 0.0 | 0.0 | 0.00 | 0.00 | 0.00 | 95 | 1016.9 |
| 20260509003121 | 5 | 234 | 0.0 | 0.0 | 0.00 | 0.00 | 0.00 | 94 | 1017.1 |
| 20260509000122 | 6 | 234 | 0.0 | 0.0 | 0.00 | 0.00 | 0.00 | 94 | 1017.1 |
| 20260508233123 | 6 | 234 | 0.0 | 0.0 | 0.00 | 0.00 | 0.00 | 94 | 1017.0 |
| 20260508231612 | 6 | 234 | 0.0 | 0.0 | 0.00 | 0.00 | 0.00 | 94 | 1017.1 |